Location: Unspecified
(42.9300°N, 71.1866°W)
Time: 14:10:41
(UTC-05:00)

Genesis I - Visible Passes

Search period start: 31 January 2015 00:00
Search period end: 10 February 2015 00:00
Orbit: 493 x 562 km, 64.5° (Epoch: 30 January)

Date Brightness Start Highest point End Pass type
(mag) Time Alt. Az. Time Alt. Az. Time Alt. Az.
31 Jan 6.4 17:46:37 10° WNW 17:49:47 20° WSW 17:52:48 10° SSW visible
01 Feb 6.6 17:34:42 10° WNW 17:37:39 18° WSW 17:40:28 10° SSW visible
02 Feb 6.7 17:22:49 10° WNW 17:25:32 17° WSW 17:28:06 10° SSW visible
08 Feb 6.6 04:39:05 10° SE 04:40:09 11° ESE 04:41:26 10° E visible
08 Feb 3.3 06:13:32 10° SW 06:17:34 73° NW 06:21:42 10° NNE visible
09 Feb 6.4 04:26:19 10° SE 04:27:57 12° ESE 04:29:47 10° E visible
09 Feb 3.3 06:01:24 10° SW 06:05:25 65° NW 06:09:33 10° NNE visible
